Theta_e
338 337 337 336 338 339 340 339 336 337 336 332 332 332 332 333 333 334 333 333 333 333 333 333 333 334 335 336 336 336 335 335 335 336 336 336 336 337 337 337 336 335 335 335 335 334 334 333 333 332 331 331 331 332 332 333 334 333 333 332 333 334 334 334 334 335 335 336 335 334 334 333 332 330 327 323 321 323 326 328 329 330 330 331 331
337 337 336 337 339 339 340 339 337 337 335 330 330 329 330 333 333 334 333 333 332 333 333 333 333 333 335 335 335 336 335 334 334 336 337 337 336 336 336 336 336 336 336 336 335 335 334 333 333 332 330 329 330 331 331 332 332 331 331 332 332 333 333 332 333 334 334 334 334 334 333 334 333 330 329 327 324 324 326 328 329 329 329 329 329
336 338 337 337 339 339 340 339 337 336 332 328 330 330 330 330 332 333 332 333 332 332 333 332 333 333 335 336 335 336 335 335 334 335 336 335 334 334 334 335 335 335 335 334 334 334 333 332 332 331 330 329 329 330 330 331 330 330 331 332 332 332 332 332 332 333 332 332 332 332 332 333 332 332 332 330 329 328 328 329 329 329 328 328 328
336 338 337 339 339 340 340 339 337 334 330 329 330 329 327 325 326 332 333 332 332 332 332 332 332 333 334 335 335 336 335 334 334 334 333 332 331 330 332 334 334 333 333 333 333 332 332 331 330 330 330 329 328 329 329 330 329 330 331 331 330 331 331 331 331 331 330 330 330 330 331 331 331 332 332 330 330 331 330 330 330 331 330 329 329
337 338 338 339 339 340 339 338 337 331 329 329 326 321 321 322 322 328 332 332 331 331 331 331 332 332 333 334 334 334 334 334 334 332 331 330 329 328 329 333 333 332 332 331 332 332 331 330 329 330 330 329 328 329 329 329 329 330 329 329 329 329 329 329 329 329 329 328 328 328 328 329 330 330 329 329 329 330 330 330 330 331 331 330 330
338 339 339 339 339 339 338 337 335 330 328 328 323 318 319 322 324 327 330 332 331 331 331 331 332 332 333 334 332 330 333 335 333 331 330 329 329 327 326 332 332 331 331 330 331 331 331 330 328 329 329 329 329 329 329 329 329 329 327 327 328 328 328 328 328 327 327 328 329 328 328 330 331 330 329 329 330 330 330 330 330 330 330 329 329
338 340 340 340 340 339 339 338 335 330 328 328 322 319 318 316 321 327 331 332 331 331 331 331 331 332 334 335 333 330 333 333 331 331 330 329 329 326 325 331 332 331 330 329 330 331 331 330 328 328 329 329 329 329 329 328 329 328 327 327 327 328 328 327 326 325 326 329 330 329 330 332 332 332 331 331 331 330 330 330 330 329 329 329 329
339 340 339 341 340 340 339 338 335 329 328 327 322 319 318 314 314 322 329 332 331 332 331 331 330 331 334 334 333 334 334 332 330 330 331 329 329 327 328 331 330 330 329 329 330 330 331 331 329 327 328 329 328 328 328 328 328 328 327 326 326 326 326 326 326 326 328 330 330 330 331 331 331 332 331 330 331 330 330 329 328 328 328 328 328
339 339 339 341 340 340 338 337 334 327 327 326 322 320 318 316 313 317 326 330 331 331 331 331 330 331 334 333 332 334 334 332 330 330 330 328 328 329 329 330 329 329 329 329 329 330 331 331 329 328 328 328 328 327 327 327 327 327 327 326 326 326 326 326 327 328 329 330 331 330 330 329 330 331 330 329 329 328 328 327 327 327 327 327 327
339 339 339 340 340 340 337 337 333 326 326 325 322 321 319 317 314 315 322 328 331 331 331 331 331 331 333 333 331 332 332 331 330 329 329 327 327 329 329 328 328 328 329 329 329 330 330 330 330 330 328 327 327 326 326 326 326 327 326 326 326 327 328 328 329 329 329 328 328 327 327 326 327 327 327 327 326 326 326 326 327 327 326 326 326
338 339 339 339 339 339 337 337 334 327 325 325 324 322 321 318 315 314 317 325 330 331 331 331 331 331 333 333 330 331 332 330 329 330 331 328 325 327 328 327 328 328 329 329 329 330 330 330 331 329 327 326 326 325 325 325 326 326 326 326 327 328 329 329 328 328 327 327 326 326 326 324 325 325 325 325 325 325 325 325 325 325 325 325 324
338 338 338 339 338 338 338 337 334 328 325 326 325 323 322 320 317 314 315 323 328 331 331 331 331 331 331 331 329 330 330 329 329 331 332 329 325 325 327 327 328 329 329 329 329 330 330 331 330 329 327 326 326 325 325 324 325 325 325 326 327 328 328 327 327 326 325 326 326 327 327 326 326 327 326 326 325 325 324 324 324 323 323 323 323
337 337 338 338 338 338 337 337 334 329 326 326 325 324 323 321 318 314 314 319 325 329 331 331 330 330 330 329 330 329 330 330 330 331 331 329 325 324 326 327 327 328 329 329 329 329 330 330 330 328 326 325 325 325 324 324 325 325 326 327 327 327 326 326 326 326 325 326 327 327 327 327 327 327 326 326 325 324 323 323 323 322 321 321 321
336 337 338 336 337 338 337 338 335 331 327 326 325 325 324 322 321 316 314 315 318 324 328 331 330 330 329 328 329 329 330 331 330 331 330 329 326 324 326 327 327 328 328 329 329 329 330 330 329 327 325 325 325 325 324 325 325 326 326 327 326 325 325 326 326 326 326 326 326 326 326 326 326 326 325 325 324 323 322 322 322 322 321 321 320
335 335 337 336 337 337 338 338 335 332 328 326 325 326 325 323 322 319 316 314 313 315 323 329 330 330 329 328 328 328 330 331 331 330 329 329 326 324 325 326 328 328 328 328 329 329 330 329 328 326 326 325 325 325 325 325 326 326 326 326 326 325 325 325 326 326 325 325 325 326 326 325 325 324 325 324 323 322 322 322 321 321 321 320 319
335 335 336 336 337 337 338 338 336 333 330 328 325 325 326 325 323 321 317 315 314 312 316 324 329 329 329 329 328 328 329 330 331 329 329 328 327 324 325 326 327 328 327 328 328 329 330 329 328 327 326 325 326 326 325 326 326 326 326 326 326 326 325 325 325 325 324 324 324 324 324 324 323 323 324 323 322 322 322 322 321 320 319 318 317
335 335 336 336 337 337 338 338 337 333 331 329 326 325 327 326 324 323 320 317 315 313 313 317 324 328 329 329 328 328 328 328 327 327 328 329 327 323 324 326 326 327 326 327 327 327 328 328 326 325 325 326 326 326 325 326 326 326 326 326 326 325 325 325 325 325 324 324 322 322 322 323 323 323 323 322 321 321 320 320 319 319 317 316 316
336 336 336 336 336 337 338 338 337 335 333 330 327 326 327 328 325 324 323 319 317 314 313 314 320 326 329 329 328 328 328 327 326 327 329 328 326 321 323 327 326 327 326 327 327 327 327 326 326 325 325 326 326 326 326 326 326 326 326 326 326 325 325 325 325 324 323 322 321 321 323 322 322 322 321 320 320 319 319 318 317 317 316 316 316
336 336 336 335 336 336 337 338 337 335 334 332 330 326 327 329 327 325 324 321 319 316 314 314 317 322 326 328 328 327 327 327 327 329 329 327 326 321 323 326 326 326 325 325 326 326 326 326 325 325 325 326 326 326 326 326 326 326 326 326 325 324 324 324 323 322 320 320 320 320 322 322 322 321 320 320 320 319 318 317 316 316 316 316 315
336 336 336 335 335 336 336 337 336 335 334 333 332 328 327 330 329 327 325 324 321 318 316 315 315 317 321 324 326 326 326 326 327 328 328 326 325 321 321 325 325 325 324 324 325 325 325 325 324 324 324 325 325 326 326 326 326 326 326 326 325 324 324 323 322 321 319 320 322 321 321 322 322 321 319 319 319 318 316 315 316 315 315 314 314
336 336 336 336 335 335 336 336 336 335 335 334 333 331 328 329 331 329 327 326 323 321 319 317 316 315 317 319 321 324 323 324 325 326 326 325 324 320 320 325 325 323 323 323 323 324 324 323 323 323 324 325 325 325 326 326 326 326 325 325 324 324 323 322 321 320 319 320 322 322 322 322 322 320 318 317 317 317 315 314 315 314 314 313 313
336 337 337 336 335 335 335 335 336 335 336 336 334 332 330 330 331 331 329 327 326 324 321 319 318 316 316 316 317 319 319 321 323 325 325 324 322 318 320 324 324 322 321 322 322 322 322 322 322 323 323 324 324 325 325 325 326 325 325 325 324 323 323 322 321 320 320 321 322 321 321 322 322 321 319 317 316 316 315 315 315 314 314 313 313
336 337 337 337 336 335 335 335 336 335 336 336 335 333 331 331 331 332 330 329 327 326 324 321 320 319 317 316 315 315 315 317 320 323 323 324 322 318 318 322 322 321 321 321 321 321 321 321 321 322 322 322 323 324 324 325 325 325 324 324 323 323 322 321 321 321 321 321 322 321 320 321 322 321 319 317 315 315 315 314 314 314 313 313 312
337 337 337 337 337 335 335 335 336 335 336 336 335 333 331 332 332 332 332 331 329 328 327 324 322 320 319 317 316 314 313 313 316 320 322 322 321 318 316 319 321 320 320 321 321 321 321 320 320 320 320 320 320 321 322 323 323 323 323 323 323 323 322 321 321 322 322 322 321 321 321 321 320 319 318 316 314 314 315 314 313 313 312 312 311
337 337 336 337 337 336 335 335 336 336 336 336 336 333 330 331 332 332 333 332 331 329 328 326 324 322 321 319 318 316 312 311 312 315 318 319 318 317 316 316 317 318 319 320 320 321 320 320 320 319 319 319 319 319 320 321 322 322 322 323 323 323 323 322 322 323 323 322 321 320 321 320 319 318 317 315 314 314 314 314 313 312 312 312 311
336 337 336 336 336 337 336 336 336 336 336 335 336 335 330 330 331 332 332 332 333 331 329 328 326 324 322 321 320 318 314 311 309 311 314 316 316 315 314 314 313 313 317 320 320 320 320 320 320 319 319 319 319 319 319 319 320 321 321 321 322 322 323 322 322 322 322 321 319 319 319 319 319 318 316 315 315 314 314 314 313 312 312 311 311
336 337 335 336 335 336 337 335 336 336 336 335 335 336 332 329 330 331 331 331 332 332 331 330 328 326 324 323 322 321 318 314 311 310 311 314 314 313 313 313 311 310 314 319 320 319 319 319 320 320 320 319 319 320 319 319 319 320 320 320 320 321 322 322 322 322 321 320 319 319 318 318 319 317 315 315 315 314 314 314 313 312 312 311 311
336 336 335 335 335 336 336 335 335 335 336 336 335 335 334 330 329 331 331 330 330 331 331 331 330 328 327 325 324 323 321 319 315 312 311 312 313 313 313 313 312 310 312 318 318 317 318 319 320 320 320 320 320 320 320 320 320 320 320 319 320 321 322 322 321 322 320 319 319 319 319 318 318 317 316 315 315 314 314 313 313 312 312 311 310
335 335 335 335 335 336 336 336 336 335 336 335 335 335 335 332 329 330 331 330 329 329 330 331 331 330 329 327 326 324 323 322 319 316 312 311 312 312 313 312 312 311 312 317 318 316 317 318 319 319 319 320 320 320 320 320 320 320 320 320 320 321 322 321 321 321 320 318 318 319 319 318 316 317 316 315 315 315 314 313 313 312 311 311 310
335 334 335 335 335 335 335 336 336 336 335 335 335 334 334 334 331 330 330 329 328 328 328 330 331 331 330 329 328 326 325 324 322 319 315 313 312 312 312 311 311 311 311 314 317 317 316 317 318 319 319 319 320 319 319 320 320 321 321 321 321 322 321 320 321 321 319 318 318 318 318 317 316 317 316 315 316 315 314 314 313 311 311 311 310
335 334 334 334 334 335 335 336 337 336 335 334 334 334 334 333 333 332 329 329 328 328 328 329 331 331 331 330 329 328 326 325 324 322 319 316 314 312 311 310 310 310 310 312 316 317 317 317 318 318 318 319 319 319 319 319 320 321 321 321 321 321 320 320 321 320 319 318 316 317 318 317 316 317 315 315 316 315 314 314 313 311 311 310 310
335 335 335 334 334 334 335 336 337 337 336 335 334 334 334 333 333 333 331 330 329 328 329 329 330 331 331 330 330 329 328 327 325 324 322 320 317 314 312 310 309 309 309 310 313 316 317 317 317 318 318 318 318 318 318 319 320 320 321 321 321 321 319 319 321 320 319 318 316 317 317 317 316 316 315 315 315 314 314 314 312 312 311 311 310
335 335 335 335 335 334 334 335 336 337 337 336 335 334 334 334 333 333 333 332 330 330 329 329 331 332 332 331 331 330 329 329 327 326 324 323 321 317 314 312 309 308 308 309 310 314 316 316 316 316 317 317 317 317 318 318 319 320 321 321 320 321 320 319 320 320 319 317 316 317 317 317 317 316 315 315 314 313 314 313 312 312 311 311 310
334 333 334 335 336 335 334 335 335 336 337 337 336 335 334 334 334 333 333 333 332 331 330 330 331 333 333 332 332 330 330 330 329 328 326 325 323 321 318 315 311 308 308 308 309 312 315 316 315 315 315 315 316 317 317 318 319 319 320 321 320 321 320 320 319 319 319 317 316 317 317 317 317 316 315 314 313 313 313 312 312 311 311 310 310
333 333 334 333 335 335 335 335 334 335 335 337 336 335 336 335 335 335 334 334 334 333 332 332 331 333 334 333 333 332 331 331 330 329 328 327 325 324 322 319 315 311 308 308 308 311 314 315 314 314 313 313 314 315 316 317 318 318 319 320 320 320 320 320 320 320 319 318 316 317 317 317 316 316 315 314 313 313 313 312 312 311 311 310 310
331 332 333 332 334 334 335 335 335 335 334 335 336 335 336 336 336 336 335 335 334 335 334 334 333 333 334 333 334 333 332 332 331 329 328 328 328 327 326 323 319 314 310 308 308 309 312 313 313 313 312 312 313 313 314 315 316 317 318 319 319 320 320 320 320 320 320 318 317 317 317 317 316 316 315 314 312 312 312 312 311 311 310 310 310
328 329 331 331 332 332 334 335 335 336 335 335 335 335 336 337 337 335 335 336 335 335 335 334 334 333 334 334 334 334 333 332 332 331 330 329 329 328 328 326 323 318 313 309 308 309 310 312 313 312 312 311 311 312 312 313 315 316 316 317 318 318 319 319 320 320 319 319 317 317 317 316 316 316 315 315 313 311 311 311 311 311 310 310 310
327 327 328 329 330 331 332 333 334 335 335 335 335 335 336 337 337 336 335 335 335 336 335 335 335 334 334 334 334 334 334 333 332 332 330 329 328 328 328 327 326 324 319 313 309 308 309 311 312 312 311 311 310 310 310 312 313 314 314 315 316 317 317 318 318 318 319 319 317 317 316 316 316 316 315 314 313 312 310 310 310 310 310 309 309
326 325 326 326 327 329 330 331 332 334 334 335 335 336 336 337 337 337 336 334 335 335 336 336 335 335 335 334 334 333 333 333 333 332 331 330 328 328 328 328 327 326 324 319 313 309 309 310 311 311 311 310 310 309 309 310 311 312 313 314 314 315 315 316 317 317 317 317 317 316 316 316 315 315 315 314 313 312 311 310 310 310 309 308 308
323 324 324 325 325 326 328 328 329 331 333 334 335 336 336 337 337 337 337 336 335 335 335 335 334 335 335 335 334 333 332 331 332 332 331 331 329 329 329 329 327 325 323 320 317 315 313 311 311 312 311 310 309 308 308 309 310 310 311 313 313 312 313 313 313 315 316 315 315 315 315 315 315 314 314 313 313 312 311 311 310 309 309 308 307
317 320 322 323 323 325 325 327 327 329 331 333 334 335 335 336 337 337 337 336 336 336 336 335 334 334 334 334 335 334 333 331 330 331 331 331 331 330 328 327 325 322 320 318 318 316 314 312 311 311 310 309 309 309 308 307 308 307 308 309 309 310 311 311 311 312 313 314 313 313 313 313 314 314 313 312 312 312 311 310 309 308 307 307 306
312 314 317 319 321 323 324 325 326 327 329 331 332 333 334 334 335 336 336 336 336 336 336 336 336 335 335 335 335 335 334 333 332 331 332 332 330 330 329 328 327 325 323 321 317 314 311 310 310 310 308 307 309 309 307 307 306 306 305 305 305 307 308 308 309 311 311 312 312 311 311 312 312 312 312 312 311 311 310 308 308 307 307 306 306
310 311 314 317 319 321 323 323 325 326 327 328 330 331 331 332 333 333 334 334 335 335 335 335 335 335 335 335 335 335 334 334 334 332 332 332 331 330 328 327 326 325 324 320 315 311 310 309 309 310 309 306 305 306 306 307 307 306 304 305 305 305 308 306 306 310 310 310 310 310 310 310 311 310 310 311 310 309 309 308 307 306 305 305 305
309 310 312 315 317 319 321 322 324 325 326 327 328 329 331 331 332 332 332 333 333 334 334 334 334 334 334 335 335 336 335 334 334 333 333 333 333 332 330 328 326 325 323 319 315 312 311 311 310 310 309 306 304 304 305 305 307 306 305 305 302 303 311 309 304 307 309 309 309 309 310 309 308 309 309 309 308 308 307 306 305 304 304 304 304
308 310 311 313 316 318 320 322 324 325 326 327 327 329 331 331 331 332 332 332 332 332 332 333 333 333 333 333 333 335 335 334 334 333 333 333 333 332 331 330 328 327 326 323 321 319 318 317 316 312 310 308 307 306 305 304 305 307 307 307 304 306 311 307 303 306 305 306 310 308 309 309 307 307 307 308 307 306 306 305 304 303 303 303 303
309 309 310 313 315 318 320 321 323 324 325 326 327 329 330 331 331 331 331 331 331 331 331 331 331 331 331 331 331 332 334 334 334 334 334 334 334 333 331 330 329 328 326 324 324 323 321 320 317 314 312 311 310 307 305 304 304 305 307 310 311 310 309 304 305 308 304 302 305 306 307 307 306 305 305 306 306 306 306 305 304 303 302 302 302
309 308 309 311 313 317 320 321 322 324 325 326 327 328 329 330 330 330 330 330 330 329 330 330 329 329 329 329 329 329 330 332 333 333 333 333 333 332 332 332 331 329 326 323 322 321 321 319 315 314 314 312 310 307 305 304 301 302 305 307 309 308 308 306 307 310 310 305 301 300 302 303 303 304 303 304 304 304 305 304 303 303 302 301 301
310 309 309 310 312 315 318 321 322 323 324 325 326 327 328 329 329 329 329 329 329 329 329 329 329 328 328 328 328 327 328 329 330 331 331 331 332 332 332 332 332 331 329 326 325 323 321 319 315 313 314 312 310 308 307 304 302 303 304 303 305 306 306 307 306 308 312 312 305 299 299 300 299 300 301 301 301 300 301 302 301 301 302 300 299
312 311 310 310 311 314 317 320 322 323 324 325 326 327 327 328 329 329 329 329 329 329 329 328 328 327 327 327 328 327 327 327 328 329 329 330 331 332 332 331 331 332 331 330 328 326 324 321 318 316 315 313 311 309 308 306 306 308 306 303 303 303 303 303 304 304 305 310 311 305 300 297 294 296 298 298 297 296 296 298 297 298 299 299 298
312 311 311 311 311 314 317 319 321 323 324 325 325 326 327 327 328 328 328 328 329 328 328 327 326 326 326 326 326 327 327 327 327 328 328 330 331 331 331 331 331 331 331 330 329 327 326 324 322 320 317 315 312 310 308 308 308 308 308 306 303 301 301 301 301 302 301 303 308 307 302 297 295 298 300 298 296 294 294 294 294 294 295 296 296
313 312 312 312 312 313 315 318 320 321 323 324 325 325 326 327 327 327 328 328 328 327 326 326 326 325 326 326 326 326 326 326 326 326 326 326 327 328 329 329 329 330 329 328 327 327 326 324 322 319 317 315 312 310 308 308 308 306 306 306 304 302 302 302 302 303 302 301 303 305 302 300 299 300 301 301 299 295 293 294 293 293 292 294 294
Wind_Speed
16 13 15 15 14 14 12 12 11 10 7 8 9 8 11 14 15 14 15 15 15 14 14 14 13 13 13 13 10 10 12 13 13 14 14 14 15 16 16 16 17 18 19 19 18 18 18 19 18 18 18 18 17 17 17 16 16 18 19 20 20 21 21 20 20 21 20 19 20 21 22 22 22 22 22 23 24 24 26 27 27 27 27 25 26
19 16 15 15 15 14 13 12 12 10 7 7 9 10 12 14 15 14 15 15 15 15 15 15 14 14 13 12 11 11 12 12 13 14 15 15 15 16 16 16 16 17 18 18 17 17 17 18 18 17 17 17 18 18 18 17 17 20 20 20 20 21 21 21 21 21 21 21 21 21 21 21 22 23 24 25 26 26 27 28 27 27 26 26 26
21 18 16 16 15 15 15 13 12 10 7 8 10 11 13 13 15 15 16 16 15 15 16 15 15 14 13 12 12 12 12 13 14 15 15 15 15 15 16 16 15 16 17 16 16 16 16 17 17 17 17 18 18 19 18 17 18 20 21 21 21 21 22 22 22 22 22 23 23 23 22 22 21 23 23 23 25 26 26 26 25 26 25 25 26
21 19 17 17 15 15 15 14 13 10 8 9 10 11 12 13 15 16 16 16 16 15 15 15 15 14 13 13 13 12 12 13 13 13 13 13 13 13 16 16 16 16 16 16 16 16 16 16 17 18 18 18 19 19 19 18 18 18 20 21 21 21 22 22 23 24 24 24 24 23 22 21 21 20 20 21 23 24 24 24 23 24 24 25 25
22 19 18 17 16 15 14 13 12 9 9 11 11 12 12 14 16 16 16 16 15 15 15 15 15 14 13 12 13 12 12 12 12 11 11 11 11 13 15 16 16 16 17 16 16 16 16 16 17 18 18 18 19 19 19 19 18 18 20 21 21 21 22 23 24 25 25 25 24 23 22 22 21 20 21 22 22 23 23 22 22 23 24 25 24
24 21 19 17 16 15 13 12 10 10 10 11 12 12 13 14 15 15 16 16 15 15 15 15 14 14 13 12 12 10 10 13 12 12 11 11 11 12 14 16 16 16 17 16 15 16 15 16 16 18 18 18 19 19 19 18 17 18 21 21 21 22 23 24 23 24 25 25 24 24 24 23 21 21 21 21 21 22 21 22 22 23 24 25 24
24 23 21 18 17 16 14 13 12 12 11 12 13 13 13 13 14 15 16 15 15 15 14 14 14 14 12 12 12 11 11 12 12 12 12 11 11 11 14 16 16 16 16 15 15 15 15 15 16 17 18 18 18 18 18 17 16 18 20 21 22 22 22 22 22 23 23 23 24 24 23 21 21 21 20 21 22 22 22 22 23 24 25 25 24
23 23 22 20 18 18 17 15 14 13 12 13 13 12 13 13 14 15 15 15 15 15 14 14 14 14 12 11 12 13 12 11 11 13 13 12 12 13 15 16 16 16 15 15 14 15 15 15 15 16 17 17 18 18 18 17 16 17 20 20 21 21 21 21 20 21 21 22 23 22 21 20 21 21 20 20 21 22 22 24 25 24 25 26 25
23 22 22 21 19 19 18 16 14 13 12 13 13 12 12 13 13 15 16 15 15 14 14 13 13 14 12 11 11 12 11 11 12 12 12 12 14 15 16 16 16 15 14 14 14 14 15 15 15 16 16 17 17 17 16 16 16 18 19 19 19 20 20 20 20 20 21 21 21 20 20 20 20 20 19 19 20 20 21 24 25 24 25 25 25
22 21 21 21 19 19 17 15 13 13 12 13 14 12 12 12 12 14 16 16 15 14 14 13 13 13 12 11 10 10 10 10 12 12 11 12 15 16 16 16 15 15 14 14 14 15 15 15 15 15 15 14 14 14 15 15 17 18 19 18 18 19 19 19 19 21 21 21 21 21 20 20 21 20 18 18 18 19 20 22 23 22 22 22 23
20 20 21 19 19 18 17 14 12 12 12 13 13 12 11 12 12 13 16 16 15 14 14 13 13 13 11 11 10 10 10 11 12 12 12 13 15 16 15 15 15 14 14 14 14 15 15 14 14 14 13 13 13 14 15 16 17 18 18 18 17 18 19 19 20 21 21 21 21 21 21 20 20 19 17 18 18 20 21 21 21 20 20 20 21
19 20 20 18 18 17 16 14 12 12 11 13 12 12 11 12 12 12 15 15 15 14 13 13 13 12 10 11 11 10 10 11 12 12 13 12 13 15 15 15 14 14 14 14 14 14 14 13 13 13 13 13 14 15 15 17 17 17 17 17 17 18 19 19 20 21 21 21 21 20 20 19 19 19 19 20 20 20 21 21 21 20 20 20 20
19 19 19 18 18 17 17 14 12 12 11 12 12 12 11 11 12 12 13 14 14 14 13 13 13 12 10 11 10 10 11 11 12 11 11 10 11 14 15 14 14 13 13 13 13 13 13 13 13 13 13 14 14 15 17 17 17 16 16 16 17 18 19 20 20 20 20 20 20 19 19 19 20 20 21 22 20 20 20 20 21 20 19 19 20
19 20 18 17 17 18 17 14 13 11 11 12 12 12 11 11 11 11 12 13 13 14 14 14 13 11 10 11 10 10 10 11 11 10 10 9 10 14 15 14 13 12 13 13 13 12 12 13 13 12 12 13 14 15 16 16 15 15 15 15 17 18 19 20 20 19 19 19 19 19 19 20 20 20 20 20 18 18 19 20 20 18 18 19 20
19 20 18 18 18 18 17 15 13 12 11 11 11 11 11 10 10 11 12 12 12 13 15 14 13 12 10 10 10 9 9 10 10 10 9 8 10 14 15 14 13 12 12 12 12 12 12 12 12 12 11 12 13 14 14 14 13 13 14 16 17 18 19 19 19 18 18 18 19 19 20 20 19 19 19 18 17 18 19 19 18 18 19 19 19
17 19 18 18 18 18 17 15 13 12 11 10 10 10 11 10 10 10 11 11 11 12 14 15 15 14 12 10 11 9 9 10 9 9 8 7 9 14 15 14 13 12 12 11 12 12 12 12 12 12 11 11 13 14 13 12 12 13 14 16 16 17 18 18 18 17 17 17 17 17 17 18 17 16 16 17 18 18 18 18 18 18 19 19 19
17 18 18 18 19 19 16 16 14 13 12 10 10 10 11 10 9 9 10 10 10 11 12 14 16 16 13 11 11 10 9 9 9 8 8 9 9 13 16 14 13 11 11 11 11 12 12 12 11 11 11 11 12 13 12 12 12 12 13 14 15 16 16 17 17 16 16 15 15 16 16 16 16 16 16 17 17 16 16 16 16 17 17 18 18
17 17 18 18 20 19 17 17 15 14 13 11 10 10 11 10 9 9 9 10 10 11 11 13 15 15 14 13 13 12 11 10 9 9 8 9 7 12 17 13 12 11 10 11 12 12 12 11 11 11 11 12 12 12 11 11 11 12 12 13 15 16 15 14 14 14 14 14 15 16 16 16 16 17 17 17 16 16 16 16 16 17 16 16 16
18 18 18 19 20 20 19 18 16 15 14 12 12 11 11 10 10 9 9 9 9 10 10 12 13 13 14 13 13 12 12 11 11 11 9 8 6 11 17 14 11 11 10 11 12 12 11 11 11 11 12 12 12 11 11 11 11 12 12 13 14 15 14 13 13 13 14 15 16 16 15 15 16 17 17 17 16 16 16 16 16 16 16 16 16
19 19 18 19 20 20 20 19 17 16 15 14 13 12 12 11 11 9 9 8 9 9 9 10 10 11 12 12 13 12 12 11 11 11 9 8 6 11 17 14 12 11 9 10 11 12 11 11 11 11 11 12 12 12 12 12 12 12 12 13 14 14 13 13 12 12 14 17 16 16 16 16 17 17 17 16 15 15 15 15 15 15 15 15 16
19 20 20 20 20 21 21 20 19 17 16 15 14 14 13 12 12 10 10 9 9 9 9 9 9 9 10 10 11 11 11 11 11 11 9 9 7 10 17 14 12 11 10 11 12 12 12 10 10 10 11 12 12 13 13 13 13 13 14 14 13 13 13 12 9 11 16 17 16 17 16 15 16 17 17 16 14 15 15 14 14 14 14 15 14
19 20 21 21 22 22 22 21 20 19 17 16 16 15 15 14 13 12 11 11 10 9 9 9 9 9 9 9 9 9 10 10 10 10 9 8 7 10 16 15 12 11 11 13 13 12 12 10 11 11 11 12 12 13 14 14 14 15 16 14 12 13 12 10 9 12 17 16 16 16 14 15 17 18 18 16 14 13 13 13 13 14 14 14 14
22 23 23 23 23 23 23 22 22 20 19 18 17 16 17 16 15 14 13 13 12 11 10 10 10 9 9 9 9 9 9 9 10 10 9 8 7 9 13 15 13 11 12 15 14 13 12 11 11 11 11 12 12 13 14 14 15 15 15 13 12 13 11 9 11 15 17 17 16 14 13 15 18 19 17 15 13 12 12 13 13 13 13 13 13
26 25 24 24 24 25 24 24 23 22 21 20 19 18 18 18 17 16 15 15 13 12 11 11 10 10 10 10 9 9 9 10 10 11 10 10 9 8 11 13 13 12 13 16 16 14 13 12 12 11 11 11 11 12 13 13 14 13 13 12 13 13 12 12 14 17 17 17 15 13 13 14 15 16 14 14 14 13 12 12 12 12 12 12 12
26 24 25 25 25 26 26 25 24 23 22 22 21 20 20 20 20 18 17 17 15 14 13 12 12 11 11 10 10 10 10 10 11 11 12 11 10 9 10 13 14 13 14 16 16 15 13 12 12 12 12 11 11 11 12 13 13 13 12 13 15 14 14 15 17 17 17 16 13 13 14 12 12 14 13 13 14 13 11 12 12 11 11 11 11
24 24 26 27 26 26 26 26 26 25 24 23 22 22 22 22 22 21 20 18 17 16 15 14 14 13 12 11 11 11 11 11 11 12 12 12 12 11 10 12 14 14 15 16 16 15 14 13 13 13 12 11 11 11 11 11 12 12 13 14 15 15 15 16 17 18 17 15 13 14 14 12 13 13 12 13 13 12 12 11 12 11 11 11 11
24 25 26 27 27 27 27 27 27 27 26 25 24 23 23 24 24 23 22 20 19 18 17 16 16 15 14 13 12 12 12 12 12 12 13 13 12 12 11 11 13 14 15 17 17 16 15 14 14 13 13 12 11 11 11 11 11 12 13 15 15 14 16 16 17 18 17 15 14 14 12 11 13 12 12 13 12 12 11 11 11 11 11 11 10
24 26 27 27 28 29 28 27 28 28 27 26 26 25 25 25 25 25 24 22 21 20 20 18 17 17 16 15 14 13 13 13 13 13 13 14 13 13 12 12 13 14 15 18 17 16 16 15 14 14 13 13 12 11 11 11 11 11 12 14 15 15 16 16 16 18 18 16 15 14 11 11 11 11 11 11 11 12 11 11 11 10 11 11 10
26 28 28 28 29 29 29 28 29 29 28 28 27 27 26 26 26 26 26 25 23 22 21 20 20 19 18 17 16 15 15 14 14 14 14 14 14 14 13 13 13 14 16 18 18 17 17 16 15 15 14 14 13 12 11 11 12 12 12 13 15 16 17 16 16 18 19 17 16 14 13 12 10 11 10 9 11 12 11 11 11 10 10 10 10
30 29 29 29 30 30 30 30 30 29 29 28 29 29 28 28 28 27 27 27 26 24 23 22 22 21 21 19 18 17 16 15 15 15 15 15 15 15 15 14 14 15 16 18 19 18 17 17 16 16 15 15 14 13 12 12 12 13 13 14 15 17 17 17 18 19 18 16 16 15 15 13 10 12 11 10 13 11 11 11 10 9 9 9 10
31 31 31 30 29 30 31 30 30 30 29 29 29 29 29 29 29 28 28 28 27 26 25 24 24 24 23 21 20 19 18 17 16 16 16 16 16 16 16 16 15 15 16 18 20 19 17 17 16 16 16 15 15 14 13 13 13 14 15 15 16 18 18 18 20 20 18 17 17 17 17 13 11 13 11 11 13 11 10 11 10 10 10 10 10
33 34 33 31 30 30 31 31 31 30 30 30 30 30 30 30 30 29 29 28 28 28 27 27 26 25 24 23 22 21 20 19 18 17 17 17 17 17 17 17 17 17 17 18 20 20 19 17 17 16 16 16 15 15 14 13 14 15 16 17 17 18 18 18 19 19 19 18 17 17 18 15 13 14 13 13 13 11 12 11 10 11 11 11 11
35 34 31 31 32 31 31 31 31 31 31 31 31 31 31 30 30 30 30 29 29 28 29 28 27 25 25 25 24 23 22 21 20 19 19 18 18 18 18 18 18 18 18 18 20 22 20 19 18 17 16 16 16 15 15 15 15 16 17 18 18 18 18 19 19 19 19 18 17 18 18 17 16 16 17 16 14 13 14 12 12 12 11 11 11
33 31 31 32 32 32 31 31 31 32 32 32 32 31 31 30 30 30 31 30 30 29 29 29 28 26 25 25 26 25 23 22 22 21 20 20 19 19 19 19 19 19 19 19 20 22 22 21 20 19 18 17 17 16 16 16 16 17 18 19 19 19 19 19 20 20 20 19 18 18 19 18 17 18 19 18 16 15 15 14 14 13 12 13 12
33 32 33 33 32 32 32 31 31 32 33 33 33 32 31 31 30 30 31 31 31 31 30 30 30 28 27 26 27 27 25 24 24 23 23 22 21 21 20 20 20 20 21 21 20 21 22 22 21 20 19 18 18 17 17 17 17 18 18 18 19 19 19 20 21 21 22 21 20 20 20 20 19 20 21 19 17 16 17 15 15 15 14 14 13
34 35 34 32 32 33 32 32 32 32 33 33 33 32 32 31 31 30 30 31 31 32 32 31 31 30 30 28 28 28 28 26 25 25 25 24 23 22 21 20 21 22 22 22 22 22 23 23 22 21 21 20 19 19 19 19 18 18 18 19 19 20 20 20 22 23 23 23 23 22 22 22 21 21 21 21 19 19 19 17 16 16 15 14 14
34 35 34 33 34 33 33 34 34 34 33 33 33 33 32 31 31 30 29 30 31 32 32 32 31 31 31 31 30 29 29 29 28 28 28 27 25 23 22 21 21 23 24 24 24 24 24 24 23 23 22 22 21 21 20 20 20 19 19 19 20 21 21 21 22 23 25 25 24 24 24 24 23 23 23 22 22 21 21 20 18 17 17 16 15
34 34 34 35 35 34 34 35 35 34 33 33 33 33 32 31 31 32 31 31 31 32 32 32 32 32 32 32 32 32 30 29 29 30 31 31 29 26 25 23 22 22 24 26 26 26 25 25 24 24 23 23 23 22 22 21 20 20 20 20 21 21 22 23 24 24 25 26 26 26 25 25 25 25 25 25 24 23 22 22 21 20 20 20 16
34 34 34 33 34 34 34 34 35 34 34 33 32 32 32 32 31 31 32 32 32 32 32 32 32 32 33 32 31 31 32 31 30 31 31 32 32 31 28 26 26 25 26 27 28 28 28 27 27 26 25 25 25 24 23 22 21 21 21 21 22 23 23 24 25 25 26 27 27 27 27 28 28 28 27 27 27 25 24 23 23 23 24 22 18
33 33 32 32 33 33 33 34 35 35 34 32 31 31 31 32 32 30 31 33 33 33 33 33 32 32 32 33 31 30 31 31 32 32 30 30 32 33 30 30 31 30 30 31 32 32 31 31 30 30 29 28 26 25 24 24 22 20 21 22 22 22 24 25 25 25 27 28 28 29 29 30 30 30 29 28 28 27 26 26 25 25 25 23 21
30 31 32 33 34 34 34 35 35 34 33 32 32 32 32 32 32 33 33 32 32 32 33 34 34 33 31 33 35 34 33 31 31 32 31 30 32 34 33 33 34 33 32 33 34 34 34 33 33 32 31 30 29 27 26 24 20 18 17 20 23 23 23 24 25 27 28 29 29 30 30 31 32 32 31 30 29 28 28 28 27 26 25 24 23
28 31 33 34 34 33 34 35 34 34 35 35 34 34 35 34 34 35 35 33 33 32 33 33 32 33 32 34 36 36 36 33 32 34 35 34 34 34 34 34 34 34 33 34 34 34 34 34 34 33 31 30 28 28 29 25 20 19 14 11 14 20 24 26 27 29 30 30 30 31 31 32 33 33 32 32 31 31 30 30 28 26 26 26 25
27 28 30 32 32 32 33 34 34 34 35 35 35 35 36 35 34 33 32 32 33 33 33 33 32 31 32 32 33 33 35 35 33 34 35 35 32 30 32 34 35 35 34 34 34 34 34 34 34 34 31 28 25 26 30 29 25 20 11 4 5 7 13 21 28 32 33 33 32 33 33 33 33 32 33 33 33 32 32 31 30 29 28 27 26
24 25 27 29 30 32 34 34 34 34 34 34 36 36 34 32 32 31 30 29 29 29 30 31 32 32 32 32 32 33 33 34 34 34 35 35 32 31 34 35 34 34 35 35 34 34 35 34 34 35 33 29 26 26 30 32 30 22 10 2 1 1 4 10 20 30 34 35 36 36 36 35 34 33 33 35 34 34 33 32 31 30 30 28 28
22 24 25 27 28 31 31 31 32 32 32 33 33 34 32 30 28 28 26 25 26 26 26 28 30 31 33 33 34 33 31 31 32 33 35 36 34 35 37 36 33 32 36 38 37 36 37 38 38 39 38 35 32 31 32 33 36 32 20 9 3 2 5 5 7 15 25 33 39 40 39 39 37 35 35 36 36 35 34 33 33 32 31 30 29
18 20 21 23 25 26 27 27 29 30 30 30 30 31 32 30 28 27 26 25 25 26 28 30 31 32 34 35 35 34 34 32 31 31 33 34 36 38 39 36 33 33 37 39 38 38 39 41 41 41 42 41 36 32 32 35 37 37 32 24 14 8 5 6 4 4 11 23 33 39 41 41 39 37 38 39 39 39 38 36 35 34 34 32 31
13 14 16 18 20 22 23 24 25 27 27 27 27 29 30 31 30 30 30 29 29 30 32 33 33 33 34 34 34 35 35 36 35 34 33 33 35 38 39 37 36 36 37 38 38 38 39 41 42 42 42 42 38 33 33 34 33 35 38 36 30 21 12 7 6 3 3 9 20 31 37 39 39 40 41 42 42 42 41 39 38 37 36 34 34
6 7 10 12 14 17 19 20 21 22 24 24 25 26 28 30 31 32 32 32 32 32 32 31 32 32 32 32 32 33 34 35 36 36 36 35 35 35 37 37 38 36 34 36 38 38 39 39 39 40 41 40 40 39 35 30 30 35 38 37 36 33 26 19 14 10 4 3 8 16 27 35 37 40 42 44 45 44 43 41 40 39 39 37 36
3 2 4 6 8 11 14 16 17 18 20 21 23 24 26 28 29 31 32 33 33 33 30 28 28 28 29 31 30 31 32 33 34 35 35 36 36 36 34 34 35 34 33 36 38 37 38 39 39 40 41 42 43 42 39 35 37 40 38 37 38 35 30 25 21 17 10 8 6 5 14 21 27 38 44 45 45 44 43 42 41 41 41 40 39
5 3 1 1 3 6 10 12 14 15 16 18 20 22 23 25 28 30 31 32 32 31 30 28 26 25 26 28 28 29 30 31 32 33 34 35 36 35 32 32 32 32 33 35 36 37 39 41 42 44 44 44 44 43 42 40 40 40 37 35 34 31 25 21 22 23 17 13 11 8 11 14 16 28 38 42 45 45 44 42 41 42 43 42 41
7 5 4 2 0 2 5 8 10 11 13 15 17 19 21 24 26 28 31 32 31 30 29 28 27 26 27 28 28 28 29 29 30 31 32 33 34 35 35 35 34 33 34 34 36 40 42 43 42 42 42 42 42 41 40 38 35 33 34 33 31 29 26 23 26 28 21 15 12 9 15 19 18 21 26 30 37 42 44 44 44 45 44 43 42
Wind_Direction
157 153 146 140 142 145 137 132 121 114 105 93 99 100 101 103 104 104 104 102 102 102 100 101 101 102 101 101 104 100 99 99 98 99 97 93 92 91 91 91 90 89 89 87 86 85 86 86 85 86 87 89 91 89 88 91 92 98 103 103 105 103 103 103 97 94 90 87 87 86 84 83 82 82 81 80 81 83 83 81 80 79 78 76 76
156 156 151 144 145 144 138 135 126 119 112 105 107 108 107 106 107 107 107 105 104 104 102 102 103 103 104 109 112 102 100 105 101 100 98 94 94 93 91 90 91 90 90 88 86 85 86 88 86 86 86 90 92 90 91 92 96 103 103 102 103 103 103 102 98 95 93 91 89 85 83 82 80 79 78 78 77 78 80 81 81 80 80 79 80
153 155 154 149 147 145 142 138 127 123 120 109 107 107 106 111 114 111 108 106 105 103 104 104 104 105 102 101 102 98 97 101 101 100 99 96 94 95 95 94 94 92 90 87 87 88 88 89 87 86 84 86 90 92 92 93 101 105 103 102 102 102 102 100 99 96 95 93 91 88 85 83 82 80 79 80 78 77 77 79 81 81 82 81 82
154 155 156 151 147 148 145 139 131 128 122 115 115 112 107 110 113 111 107 105 105 104 105 104 105 107 101 98 99 99 95 96 98 98 97 95 91 93 99 99 98 95 91 89 89 90 90 90 89 88 86 86 89 93 93 93 99 101 101 104 103 104 103 102 100 97 95 94 92 91 87 85 83 83 85 87 87 87 86 85 86 85 85 83 81
155 155 156 149 146 150 147 141 134 130 126 125 121 112 106 102 105 109 110 107 106 105 106 107 107 107 102 103 105 105 102 101 99 97 94 89 88 92 100 101 99 97 95 93 91 92 93 92 90 90 90 90 91 93 95 94 97 100 104 105 104 103 102 101 100 98 97 95 94 91 89 90 89 90 91 92 93 93 92 91 91 91 90 88 85
155 155 155 150 148 150 150 145 138 141 134 128 118 108 103 98 101 106 112 111 109 107 108 110 109 108 105 108 109 109 107 104 97 94 92 89 89 91 103 105 101 99 97 95 93 93 94 93 90 91 92 93 93 94 96 96 97 103 108 107 104 104 103 102 100 100 100 99 96 94 93 94 94 94 93 93 93 91 90 89 89 89 88 86 85
156 155 155 153 152 151 149 148 148 151 139 126 113 103 99 99 103 106 113 112 110 111 110 111 111 109 107 108 109 109 106 102 93 89 87 87 90 94 107 108 103 101 99 96 93 92 95 94 89 91 94 94 95 96 97 96 96 102 108 109 107 107 106 105 104 104 102 100 99 100 98 97 94 91 92 91 90 90 89 89 87 86 85 83 82
158 158 158 156 156 155 154 156 157 152 137 124 110 102 98 97 105 112 116 114 113 113 112 113 112 112 109 103 102 106 105 100 92 90 90 89 92 101 109 108 104 102 100 97 94 93 95 96 92 92 96 97 96 97 98 98 100 106 110 110 109 110 109 107 107 106 103 102 103 103 100 95 90 88 90 90 89 89 89 88 86 82 80 79 77
160 160 159 158 159 160 159 160 160 150 137 124 112 104 99 98 105 114 118 117 117 116 115 116 115 116 114 107 101 101 100 97 93 92 95 97 100 104 107 107 105 102 100 98 95 96 97 97 94 94 96 97 98 101 103 103 108 112 112 112 110 110 110 109 109 108 107 106 104 101 98 94 90 89 90 90 88 88 89 88 87 85 82 80 76
163 162 161 160 161 163 161 160 160 149 139 126 117 111 104 102 106 114 119 120 121 119 118 119 118 118 118 115 111 104 99 98 95 97 100 100 103 105 107 107 106 102 99 97 98 99 100 100 98 97 96 98 102 105 107 108 114 116 115 113 111 111 112 112 111 109 108 106 101 97 96 96 93 91 91 91 89 86 86 89 89 87 86 84 81
164 165 165 163 164 165 162 163 162 152 143 130 120 116 111 107 109 114 119 121 123 122 121 123 122 120 119 112 112 109 103 102 100 107 109 103 103 107 109 108 107 103 100 99 102 102 101 101 100 97 97 104 107 106 109 115 118 117 117 113 113 114 114 114 111 107 105 103 100 98 96 96 94 92 94 93 90 87 86 87 88 86 86 87 86
166 168 168 169 168 166 165 167 166 158 148 134 124 121 117 110 111 114 117 121 124 125 125 128 125 121 118 111 115 114 107 108 107 112 113 104 101 107 111 110 109 104 101 102 104 105 104 101 99 100 101 107 110 112 117 121 121 119 118 115 115 116 115 114 108 105 104 102 98 96 95 95 94 93 94 91 87 85 85 85 84 82 82 84 84
168 170 172 174 172 169 168 170 170 163 154 141 132 127 121 115 113 114 117 121 127 130 128 130 129 121 119 118 119 116 115 117 114 114 111 103 98 108 114 113 113 106 102 103 106 107 106 104 103 104 104 107 114 119 122 123 122 121 120 118 120 121 120 115 108 106 103 100 96 94 94 92 91 90 88 87 86 83 82 82 81 81 80 81 83
170 172 176 178 174 172 173 174 175 166 160 150 140 135 129 124 118 118 119 121 128 133 133 133 130 123 124 125 120 120 127 125 119 115 108 103 100 111 117 116 118 108 102 103 107 110 110 110 108 109 108 111 117 120 123 123 121 121 123 123 126 126 121 114 108 106 101 98 94 92 91 90 89 88 87 88 90 87 83 83 83 85 85 85 86
174 174 177 180 175 175 178 178 180 172 167 159 150 143 136 133 126 123 122 123 126 132 137 137 134 126 127 129 125 126 128 122 118 114 112 110 104 113 119 121 121 108 104 105 108 112 114 115 113 113 114 115 117 121 124 122 122 123 126 130 131 126 119 113 108 106 102 99 96 94 92 92 91 90 89 89 90 88 85 85 87 90 88 86 85
178 176 178 181 177 179 181 181 184 178 174 169 163 151 143 140 133 129 126 128 126 131 138 141 142 131 129 135 133 134 129 124 122 120 122 119 109 118 124 125 123 112 110 109 110 116 116 117 117 117 118 121 121 123 127 126 127 128 133 137 132 123 117 113 109 106 103 101 100 97 96 96 94 93 93 91 91 89 88 87 87 88 87 84 83
182 180 181 182 182 183 183 184 188 184 180 179 176 163 153 149 143 140 133 134 132 134 139 144 147 137 137 144 142 142 140 137 133 132 132 124 115 123 127 129 130 121 117 116 118 124 123 122 125 126 127 127 125 129 134 133 134 136 141 140 129 119 115 112 108 106 105 102 97 93 97 102 100 97 96 94 92 91 90 88 86 86 86 85 85
185 186 186 185 186 187 186 187 192 188 187 188 187 179 164 158 155 152 144 142 139 140 142 147 152 147 148 152 151 151 147 144 142 143 143 135 125 128 130 133 135 128 126 124 124 132 133 132 132 132 131 129 130 135 139 139 141 142 146 145 133 122 117 114 112 110 107 103 101 105 108 109 104 100 98 97 95 93 90 90 88 88 88 87 86
190 191 190 190 190 190 189 189 196 193 192 193 194 191 176 168 165 163 157 150 146 146 148 151 157 157 156 157 160 162 156 151 151 152 154 152 146 138 135 134 142 144 139 131 133 141 142 139 135 132 131 132 136 139 141 144 146 146 149 148 134 123 121 120 116 111 110 109 109 113 113 108 106 104 102 97 96 95 91 91 91 90 90 89 88
194 197 196 195 194 193 192 192 198 198 197 197 198 200 188 179 173 172 170 160 156 154 154 156 160 163 163 164 167 171 167 161 164 166 170 168 161 146 139 141 158 161 150 141 144 148 146 144 142 139 137 137 139 140 142 145 146 146 147 141 130 127 130 126 118 111 114 117 115 114 113 110 110 109 105 98 93 91 91 92 93 92 91 91 92
198 201 200 199 198 197 197 195 199 202 201 200 201 204 199 190 182 180 178 172 168 164 163 162 164 168 170 172 174 177 176 172 174 178 182 179 169 150 144 152 172 169 158 154 153 154 156 158 155 150 144 142 142 143 145 146 147 146 143 138 136 139 137 130 126 120 122 125 124 120 117 115 113 111 110 104 95 91 96 97 95 95 95 95 95
201 203 204 203 202 202 202 200 201 204 204 204 204 205 204 199 190 188 187 184 181 176 174 172 172 174 175 179 181 184 184 182 184 186 189 185 177 157 152 164 179 175 166 162 161 163 166 166 161 156 151 149 147 147 148 148 150 148 145 144 147 148 142 140 138 130 129 132 130 127 127 126 119 113 110 106 100 98 100 100 101 101 99 99 98
202 205 206 205 205 205 207 205 204 205 206 207 208 208 207 205 199 195 195 193 190 187 185 183 182 181 182 184 186 189 191 192 193 195 197 195 189 168 164 174 181 177 171 167 169 171 172 170 164 162 159 158 157 155 155 154 154 153 154 157 160 158 156 156 144 134 135 136 135 134 134 130 120 112 108 104 105 108 106 105 107 105 103 103 101
204 207 208 207 208 208 209 208 207 208 209 209 209 211 211 210 207 202 201 200 197 195 194 193 192 190 190 189 190 193 195 197 198 200 203 202 200 182 174 181 185 181 178 175 176 179 179 175 170 168 167 166 166 165 166 166 164 165 169 171 169 168 169 162 146 140 139 139 140 136 129 127 121 115 109 106 111 115 114 112 111 110 109 107 106
206 207 209 210 210 211 211 210 211 211 211 211 210 212 213 212 212 210 206 206 204 201 200 200 200 199 198 196 197 198 200 202 202 203 205 206 205 197 183 185 190 189 186 183 182 185 185 182 177 175 175 175 175 174 176 177 177 178 179 177 173 171 168 157 150 148 146 146 144 136 132 132 126 119 113 113 119 122 121 118 117 117 115 113 112
208 210 212 212 212 213 214 212 213 214 214 215 213 213 214 213 214 215 212 209 209 207 205 204 206 206 205 204 203 203 204 206 208 207 207 209 208 205 195 190 195 195 192 189 187 190 191 189 185 182 182 183 183 179 179 183 183 183 183 180 176 172 167 161 158 154 151 152 147 146 148 140 129 124 121 124 126 128 128 124 123 123 121 119 118
210 213 216 215 214 214 216 215 215 216 215 217 218 215 215 215 215 218 219 214 211 212 211 209 210 211 211 211 211 210 210 210 213 213 212 212 211 210 206 199 199 199 197 195 193 194 196 195 191 190 188 187 187 183 182 186 187 188 187 185 181 178 174 170 167 162 160 158 153 158 162 149 139 132 128 131 132 133 133 130 128 128 126 124 124
212 216 218 218 217 217 217 217 217 218 217 216 219 219 216 216 216 217 221 222 218 216 217 216 215 216 217 217 217 217 217 216 217 218 217 216 215 214 212 208 204 204 202 199 199 198 198 198 196 194 192 190 190 187 187 189 193 194 194 192 188 185 179 176 177 173 168 164 162 164 162 160 157 144 138 141 145 143 139 139 137 133 133 130 130
216 218 219 220 220 219 218 218 218 219 219 216 218 221 219 217 217 217 220 225 225 222 220 220 220 220 220 221 221 221 221 222 222 221 221 220 218 217 217 215 212 209 206 204 204 204 201 200 200 198 196 195 195 194 194 195 197 199 199 197 191 187 184 184 186 178 170 168 172 174 171 176 172 158 152 151 156 152 146 148 145 142 142 139 138
220 220 220 221 222 221 220 220 221 220 221 218 217 222 222 220 219 219 220 225 229 229 225 223 224 224 223 223 224 225 225 226 226 225 224 223 221 220 220 219 217 213 211 209 208 209 208 205 204 204 203 202 202 202 202 201 201 202 202 200 193 189 188 189 189 183 178 180 183 184 183 188 181 164 160 160 161 155 152 155 153 153 153 151 148
223 223 222 222 222 223 222 222 223 222 222 220 218 221 224 224 224 222 222 225 229 232 230 227 226 226 226 225 226 228 229 229 230 229 228 227 225 225 224 223 222 218 216 216 213 212 213 213 211 210 211 209 208 207 207 207 204 203 202 202 197 193 192 193 192 190 191 193 190 190 189 189 186 171 163 166 167 162 164 164 160 162 162 161 159
224 226 225 223 223 224 224 224 225 225 223 221 220 221 224 227 227 226 225 226 227 230 233 232 229 228 228 228 229 230 230 231 232 232 232 231 231 229 228 227 226 223 220 219 218 216 216 217 217 215 216 215 213 211 208 209 208 204 202 203 203 201 200 197 198 196 195 197 194 194 195 191 189 179 168 173 178 175 173 172 169 169 169 169 168
226 227 227 227 227 227 226 226 226 226 226 224 223 223 225 227 229 231 229 229 228 228 232 235 235 233 231 230 231 232 233 234 234 235 235 234 235 234 232 231 230 229 225 222 220 220 219 219 220 219 218 218 217 215 211 210 210 208 205 206 207 208 208 204 205 203 198 199 199 199 201 197 192 185 179 182 188 186 180 182 181 178 181 181 180
229 228 229 230 230 230 229 227 226 227 228 227 227 226 226 226 229 233 234 234 232 231 232 235 238 238 237 235 233 233 235 238 238 237 236 236 236 236 237 236 233 231 229 227 224 222 221 222 223 222 221 221 221 220 217 215 213 212 210 210 211 211 213 211 210 210 206 206 206 205 205 203 198 194 190 189 193 195 190 190 191 189 192 190 188
230 230 231 231 232 233 231 229 228 227 228 229 229 228 228 228 229 232 234 236 236 237 236 236 238 239 239 240 239 237 236 239 241 240 238 238 238 237 237 238 238 235 233 231 227 225 224 224 226 225 223 223 223 222 222 222 219 217 214 214 215 215 216 217 216 214 213 213 212 210 209 207 205 203 200 196 195 198 195 193 196 196 194 196 195
232 232 233 233 233 234 233 231 229 227 227 229 230 230 231 231 231 232 234 236 237 238 239 238 239 239 238 238 240 240 238 238 241 241 240 238 241 243 241 240 239 237 234 233 230 228 226 225 226 228 227 225 224 224 224 225 225 222 220 218 218 219 218 220 221 218 215 215 215 213 211 211 211 210 208 205 201 200 199 199 203 202 199 201 201
234 234 233 233 233 233 233 233 231 229 227 228 229 230 231 232 233 235 236 237 238 238 239 239 240 240 239 238 238 238 238 238 239 241 241 238 239 243 245 245 245 243 238 234 232 230 228 226 226 227 230 231 229 228 226 226 227 225 223 222 222 222 221 221 222 222 220 219 218 216 213 213 214 213 213 213 211 209 209 208 208 207 205 203 202
238 237 236 235 235 234 233 234 234 231 228 227 228 229 230 231 234 237 239 239 240 240 239 239 240 240 241 242 240 237 237 238 241 241 241 239 238 237 238 238 240 244 242 237 233 231 229 228 227 227 229 232 232 232 231 229 227 226 223 223 224 222 222 223 223 223 223 224 223 220 217 216 216 216 215 216 216 217 219 216 210 209 209 207 204
241 240 238 237 236 235 234 235 234 232 230 228 227 228 228 230 232 235 237 239 240 242 241 240 240 240 241 243 242 239 236 236 240 242 242 243 241 239 240 239 237 237 239 237 233 230 229 229 229 229 229 232 235 234 233 231 226 225 224 223 225 225 223 224 223 223 224 225 225 222 220 219 218 217 217 217 218 221 223 219 213 211 214 212 207
245 243 240 238 236 235 233 233 234 233 229 226 225 225 224 226 229 230 231 233 235 238 241 243 242 241 241 241 244 247 244 238 236 236 238 243 245 243 243 242 238 233 231 231 230 229 229 228 228 227 226 225 227 229 230 228 223 221 223 226 227 226 227 227 225 225 225 225 225 225 223 221 221 219 219 220 220 222 222 218 215 214 217 218 217
247 244 241 239 238 235 232 232 233 230 226 223 222 221 221 221 223 226 229 230 231 232 235 238 240 242 244 246 246 247 248 246 243 240 238 241 243 241 239 239 238 234 231 231 230 230 228 227 225 224 223 220 219 223 224 220 215 216 221 228 231 231 230 230 229 227 227 227 226 226 224 223 223 221 221 222 222 221 219 216 216 217 221 224 225
247 244 242 241 239 234 232 233 233 228 226 225 221 221 222 221 222 225 229 231 233 234 234 235 236 238 243 246 242 239 239 241 245 244 241 238 236 237 239 241 243 242 241 239 235 231 228 226 223 220 220 221 221 221 218 210 204 209 215 227 240 240 238 237 235 231 228 229 229 228 227 226 225 223 222 223 222 220 218 217 218 222 225 226 226
247 245 243 242 238 234 234 234 232 229 229 227 224 225 226 225 225 227 229 231 234 237 239 241 242 242 242 242 242 241 238 238 243 242 240 238 237 242 245 242 241 240 240 239 233 228 226 224 222 221 220 220 224 223 218 215 207 200 197 220 241 246 249 244 240 237 232 230 231 231 231 230 228 226 224 225 224 222 221 221 224 227 228 227 228
245 243 242 240 237 236 236 233 231 231 230 228 228 229 229 227 228 231 233 234 237 239 240 242 243 244 244 243 243 244 241 238 239 240 239 238 240 250 252 245 242 242 241 238 232 230 229 229 228 226 221 217 220 224 223 220 212 200 179 158 139 131 261 243 236 240 236 232 232 232 232 233 232 230 228 228 227 226 226 226 228 229 229 229 230
246 245 242 240 239 238 237 234 232 231 231 231 230 229 227 227 227 229 232 234 237 237 237 238 238 240 243 244 243 243 241 238 236 236 236 237 242 249 246 239 240 246 247 243 240 240 238 237 234 228 223 220 219 223 224 220 218 216 204 179 139 181 237 219 222 245 238 232 234 233 233 234 234 233 233 232 231 230 230 230 231 230 229 229 230
255 252 247 243 242 241 239 237 234 233 233 233 231 228 226 225 224 223 225 228 231 233 233 235 237 239 241 243 243 243 243 242 242 241 239 240 245 247 242 237 240 246 244 240 239 240 239 239 234 227 224 224 221 221 223 220 218 220 217 213 219 227 216 178 172 265 245 233 234 234 235 235 235 236 236 236 235 234 233 231 231 230 229 229 230
269 261 254 249 244 242 241 239 237 236 235 234 232 229 227 226 225 225 227 227 230 235 237 239 241 243 245 245 245 245 244 244 246 246 246 245 244 241 237 237 243 246 241 237 237 238 239 238 234 229 228 227 223 221 225 221 215 220 223 223 228 236 238 209 194 234 262 240 233 233 236 236 236 238 238 239 239 237 235 232 231 230 229 229 230
284 261 257 256 250 245 242 240 240 238 237 235 234 231 230 229 229 229 231 232 234 239 242 244 245 246 248 248 248 248 247 246 246 246 247 248 247 244 239 237 240 242 242 243 244 243 243 240 235 232 231 228 225 224 226 220 215 223 226 226 231 237 240 235 228 228 226 255 238 230 236 237 236 238 239 241 241 240 238 235 232 230 229 229 229
5 282 262 262 253 246 242 240 240 239 238 237 236 235 234 233 233 233 234 236 239 243 245 247 248 247 248 248 248 248 247 246 245 245 244 244 245 246 245 241 238 238 243 248 250 249 248 244 240 238 235 231 228 227 227 223 224 228 226 225 229 234 238 239 237 235 231 239 241 223 231 233 236 239 239 239 241 242 240 238 235 233 231 231 230
44 50 47 277 251 243 241 240 241 241 240 239 238 238 237 236 236 237 238 241 243 244 245 246 247 247 247 247 246 246 246 246 245 244 244 243 242 243 245 244 243 242 244 247 251 254 253 248 243 239 236 232 230 228 228 229 231 231 227 224 225 224 227 233 233 232 230 232 239 244 231 219 228 242 242 240 241 242 241 239 237 236 235 233 233
56 59 60 59 68 238 241 242 244 243 242 243 242 243 242 241 241 242 244 246 246 246 246 246 247 247 248 248 248 248 248 248 247 247 246 245 245 246 248 249 250 250 250 252 256 256 251 244 240 237 235 233 232 230 230 232 235 235 233 230 228 223 221 226 231 229 226 226 234 246 238 227 231 244 247 247 245 243 242 241 239 238 237 236 235